Zurück zum Katalog

DELTA 1 DEB

AktivPO
NORAD 37645·DEBRIS·🇺🇸 United States

Gestartet Mar 5, 1978 von Vandenberg Space Force Base

Loading…

Nächste Überflüge (nächste 24 Stunden)

TLE

AktuellSource: Space-Track

Epoche: Sep 13, 2026, 09:00 UTC

1 37645U 78026JG  26256.37540240  .00000108  00000-0  37175-4 0  9990
2 37645  98.7382 295.3384 0049668 219.5253 152.8087 14.54388664754318

Verfolge DELTA 1 DEB in Echtzeit mit AllMySat

Download on the App Store